User: anonymous   Login
Location: Banff
(51.1667°N, 115.5667°W)
Time: 23:13:35
(UTC+00:00)
Language:

Courier 1B Rocket - Orbit

View from above orbital plane
View from above orbital plane
View from above satellite
View from above satellite

Ground track
Ground track

The orbit data is extracted from the following two-line orbital elements,

1 00059U 60013B   21210.53474656  .00000089  00000-0  36946-5 0  9990
2 00059  28.2479 287.1100 0189232 102.9038 259.2714 13.52986505  1437
Epoch (UTC): 29 July 2021 12:50:02
Eccentricity: 0.0189232
inclination: 28.2479°
perigee height: 920 km
apogee height: 1202 km
right ascension of ascending node: 287.1100°
argument of perigee: 102.9038°
revolutions per day: 13.52986505
mean anomaly at epoch: 259.2714°
orbit number at epoch: 143

The dashed part of the orbit path shows where the satellite is in the earth's shadow,  

DLR